Lid_Strength_Index
-1 -0 -0 -0 -0 0 0 -0 -2 -2 -2 -2 -1 -1 -1 -1 -0 -0 0 -0 0 0
-1 -1 -0 -1 -1 -0 -1 -0 -1 -1 -1 -1 -1 -1 -1 0 -0 -0 0 0 0 0
-1 -1 -1 -1 -1 -1 -1 -1 -1 -1 -1 -1 -1 -1 -1 -1 -1 -0 -0 -1 -0 -0
-1 -1 -1 -1 -1 -1 -1 -1 -1 -1 -0 -1 -1 -1 -1 -1 -0 -0 -0 -1 -0 -0
-0 -1 -1 -1 -1 -1 -1 -1 -0 -1 -0 -0 -1 -1 -1 -0 -0 0 0 -0 -0 0
-0 -0 -0 -1 -1 -1 -1 -1 -1 -1 -1 -0 -1 -1 -1 -0 0 -0 -0 -0 -0 0
-0 -0 -1 -1 -1 -1 -1 -0 -0 -1 -0 -1 -0 -0 0 -0 -0 -0 -0 -1 -0 0
-0 -1 -1 -1 -1 -1 -1 -1 -1 -0 -0 -1 -1 1 -1 -0 -1 -1 -0 -1 -1 -1
-0 0 -1 -1 -1 -1 -1 -1 -1 -1 -0 -0 1 4 3 2 -0 -1 -0 0 -0 -1
-0 0 0 -0 -0 -0 -0 -1 -0 -1 -1 -1 0 6 5 4 -1 -0 -1 -0 -0 1
0 1 1 -0 -0 -0 -1 -1 -0 -0 -1 -1 2 6 6 6 -0 -1 -1 -1 -1 -1
0 1 0 1 -0 -1 -0 -1 -0 -1 -1 -1 -1 6 7 5 0 1 -0 -0 -1 -1
-0 -0 0 -0 -0 -1 -1 -0 0 -0 -1 2 -1 7 7 6 1 -0 0 -0 -1 4
-0 -0 -1 -0 -1 -1 -1 -0 -0 -0 -0 -1 -0 1 7 7 2 1 2 1 1 2